Regional Weather Roundup
Issued by NWS

Home | Current Version | Previous Version | Text Only | Print | Product List | Glossary Off
Versions: 1 2 3 4 5 6 7 8 9 10 11 12 13 14 15 16 17 18 19 20 21 22 23 24 25 26 27 28 29 30 31 32 33 34 35 36 37 38 39 40 41 42 43 44 45 46 47 48 49 50

000
ASUS44 KMEG 282100
RWRTN
TENNESSEE HOURLY STATE WEATHER ROUNDUP
NATIONAL WEATHER SERVICE MEMPHIS TN
400 PM CDT SUN AUG 28 2016

TNZ002-004-019-021-049-052-054-088>092-282200-
WEST TENNESSEE

CITY           SKY/WX    TMP DP  RH WIND       PRES   REMARKS
MEMPHIS INTL   MOSUNNY   95  67  39 E7        30.03F HX  99
NWS MEMPHIS      N/A     93 N/A N/A MISG        N/A
JACKSON        SUNNY     92  72  51 VRB5      30.06F HX  99
DYERSBURG      SUNNY     91  73  55 MISG      30.05F HX 100
PARIS          SUNNY     90  73  58 E5        30.09F HX  98
LEXINGTON      SUNNY     91  66  43 CALM      30.07F HX  94
$$

TNZ008-025-027-028-033-062-065-066-282200-
NORTH MIDDLE TENNESSEE

CITY           SKY/WX    TMP DP  RH WIND       PRES   REMARKS
NASHVILLE      MOSUNNY   94  69  44 N8        30.09F HX  99
CLARKSVILLE    MOSUNNY   92  70  48 SW5       30.08F HX  97
SMYRNA         MOSUNNY   91  72  52 NE7       30.08F HX  98
COOKEVILLE     SUNNY     73  72  94 CALM      30.11F
CROSSVILLE     CLOUDY    82  71  69 N5        30.16F
$$

TNZ061-075-076-078-094-096-097-282200-
SOUTH MIDDLE TENNESSEE

CITY           SKY/WX    TMP DP  RH WIND       PRES   REMARKS
$$

TNZ017-018-042-046-047-282200-
NORTHEAST TENNESSEE

CITY           SKY/WX    TMP DP  RH WIND       PRES   REMARKS
TRI CITIES     PTSUNNY   90  69  50 VRB6      30.14S HX  94
$$

TNZ012-013-036-069-073-074-282200-
CENTRAL EAST TENNESSEE

CITY           SKY/WX    TMP DP  RH WIND       PRES   REMARKS
KNOXVILLE      MOSUNNY   92  67  43 CALM      30.07  HX  95
OAK RIDGE      SUNNY     93  68  43 CALM      30.10F HX  97
GATLINBURG     SUNNY     90  70  51 W3        30.08F HX  95
$$

TNZ083-085-099-282200-
SOUTHEAST TENNESSEE

CITY           SKY/WX    TMP DP  RH WIND       PRES   REMARKS
CHATTANOOGA    TSTM      76  67  73 NE6       30.13R VSB 1/2
$$

SKY/WX REPORTED AS FAIR MEANS FEW OR NO CLOUDS BELOW
12 THOUSAND FEET.





USA.gov is the U.S. government's official web portal to all federal, state and local government web resources and services.